Showing default

COSMOS 80, 1570

Orbit data source: Space-Track

COSMOS 80, 1570 is a payload satellite owned by OKB-10 (CIS) in LEO that was launched on Fri, 03 Sep 1965 UTC via a KOSMOS 65S3 launch vehicle from the Tyuratam Missile And Space Complex (TTMTR). Payloads include a variety of satellites, spacecraft, and rockets equipped with specific instruments for various scientific and technological missions. These include communications satellites like Starlink; space stations such as the ISS; scientific satellites like the Hubble; Earth observation satellites from companies like Planet Labs, Umbra, and HawkEye 360; GPS; miniature CubeSats for education and research; and military/defense satellites.

Loading next visibility...
COSMOS 80 details
Identifier
1570, 1965-070A
Orbit
LEO
Last TLE update7 hours ago
Origin
Flag of CISOKB-10 (CIS)
ManufacturerOKB-10
MissionDefense Communications
Bus & MotorSTRELA-1 11F610, Unknown motor
Mass50 kg wet, 50 kg dry
Launch date (UTC)
1965-09-03 (59 years ago)
Launch vehicle
KOSMOS 65S3
Launch site
Tyuratam Missile And Space Complex (TTMTR)
Object type
Payload
Rocket body
Debris
Shape & HBRPoly, 0.8 m
Radar Cross Section0.731 m², Medium (>0.1 m² and < 1m²)

Expand to show TLE details & history

TLE from 7 hours ago
0 COSMOS 80
1  1570U 65070A   25045.32565573 -.00000090  00000-0  41636-4 0  9997
2  1570  56.0587 354.2838 0102012  21.6864 137.8077 12.52790582720656
Epoch: 2025-02-14T07:48Z
Definitive object data (Epoch: 2025-02-14T07:48:56.655Z)
Latitude16.27575°
Longitude-98.81741°
Altitude1,512.817 km
Speed7.084 km/s
True Right ascension10h 52m 01s
True Declination16° 11' 32"
Sunlit
Object was in full shadow at TLE epoch
Visualization TLE readout
Latitude49.4799°
Longitude-139.96824°
Altitude1,460.557 km
Speed7.137 km/s
Apparent Right ascension07h 01m 29s
Apparent Declination11° 01' 31"
Sunlit
Object is in full shadow
Visualization observer readout
Local Sidereal Time17:52:44
Azimuth338.816° N
Elevation-36.62°
Doppler factor1
Orbital elements
Apogee altitude1,532.551 km
Perigee altitude1,372.783 km
Semi-major axis7,830.804 km
Eccentricity0.0102012
Inclination56.0587°
RAAN354.2838°
Arg. of periapsis21.6864°
True anomaly138.58543°
Mean anomaly137.8077°
Eccentric anomaly138.1973°
Mean motion3.13209 °/min
BSTAR0.000041636
Orbital period114.94 mins
Loading maneuver chart data...
Loading historical data...
Loading historical data...
Loading historical data...
Loading historical data...
Loading historical data...
Loading historical data...
Loading historical data...

COSMOS 80 Visibility forecast

Observer location: undefined°, undefined

Span
Click to sort rows by Start time (UTC) header in descending order
Start Az.
Max El. time (UTC)
Max El. Az.
Max El.
End time (UTC)
End Az.
5 mins2025-02-14 20:30:38.316Z131.139° SE2025-02-14 20:33:38.316Z109.336° ESE12.134°2025-02-14 20:35:38.316Z94.78° ESE
14 mins2025-02-14 22:25:38.316Z204.082° SW2025-02-14 22:31:38.316Z137.921° SSE41.908°2025-02-14 22:39:38.316Z50.746° ENE
14 mins2025-02-15 00:25:38.316Z263.49° W2025-02-15 00:32:38.316Z335.469° NNW34.836°2025-02-15 00:39:38.316Z38.717° NE
12 mins2025-02-15 02:29:38.316Z312.063° NW2025-02-15 02:34:38.316Z356.664° N24.528°2025-02-15 02:41:38.316Z52.007° ENE
14 mins2025-02-15 04:30:38.316Z323.113° NNW2025-02-15 04:37:38.316Z29.503° NE31.857°2025-02-15 04:44:38.316Z88.648° E
16 mins2025-02-15 06:30:38.316Z313.021° NW2025-02-15 06:38:38.316Z189.757° SSW44.661°2025-02-15 06:46:38.316Z141.544° SSE
10 mins2025-02-15 08:32:38.316Z281.125° WNW2025-02-15 08:37:38.316Z242.428° WSW19.655°2025-02-15 08:42:38.316Z205.782° SW
|